Theta_e
315 317 319 318 322 324 323 323 322 321 320 313 313 314 317 322 322 321 321 321 323 324 325 326 329 328 327 327 326 323 325 330 328 325 332 339 339 339 340 340 340 341 341 341 339 336 335 332 333 336 332 330 330 327 324 327 329 331 332 333 335 336 336 337 338 337 335 333 334 335 334 334 333 332 332 332 332 333 333 332 332 331 330 330 330 330 331 331 331 331 330 330 330 330 330 330 330
316 319 322 322 323 323 322 324 320 317 315 310 312 316 318 321 321 321 321 322 324 323 324 327 328 328 325 324 324 323 326 329 331 332 335 337 337 339 340 340 340 340 341 341 340 339 338 332 333 335 333 331 330 327 322 322 325 330 333 334 335 336 336 337 338 337 335 333 334 334 334 334 333 333 332 332 332 332 331 332 333 332 331 331 330 330 331 331 330 330 330 330 330 330 329 329 329
316 321 324 324 324 321 323 323 318 313 311 310 312 318 319 320 321 321 322 323 324 323 326 329 328 327 323 324 323 323 326 329 334 335 335 336 337 338 339 340 339 340 340 341 340 340 338 331 333 335 333 332 329 327 324 324 325 330 334 334 335 336 336 337 337 337 335 334 334 334 334 334 334 333 332 332 331 331 331 331 332 332 332 332 332 331 331 331 331 330 330 330 330 329 330 330 329
318 323 325 325 324 321 323 323 319 314 311 310 311 317 320 319 321 323 324 324 324 325 327 329 328 327 324 327 323 323 330 333 335 335 335 337 338 338 338 339 338 340 340 341 340 340 337 330 333 335 333 332 330 329 326 324 324 328 332 333 335 335 336 336 336 337 336 334 333 334 335 335 334 333 332 332 331 330 331 332 333 333 333 333 331 331 331 330 330 330 330 329 329 329 330 330 329
320 323 323 326 326 322 324 323 320 316 312 312 312 317 320 320 322 323 324 323 324 326 326 328 328 327 325 327 326 326 331 334 336 336 336 337 338 337 339 339 338 339 340 341 340 340 336 329 333 335 334 332 331 329 326 325 323 325 330 333 334 335 336 335 335 336 336 335 334 333 335 334 333 332 332 331 330 331 331 332 333 334 334 333 331 331 330 330 329 329 330 330 329 329 329 329 330
321 323 322 324 324 322 322 318 315 314 315 317 315 317 320 320 322 323 323 321 322 324 324 327 327 327 326 327 327 329 333 335 337 336 337 338 337 337 339 339 337 339 340 340 340 340 333 329 332 334 334 332 331 328 326 324 323 324 328 332 334 335 335 334 335 336 336 335 334 334 334 333 333 332 331 331 330 331 331 331 332 333 334 334 333 332 330 330 330 330 330 329 329 328 329 329 329
322 324 322 321 321 322 321 315 314 315 317 318 317 318 318 320 322 323 322 321 320 320 321 325 325 325 328 327 328 331 334 337 337 337 338 337 337 338 339 338 337 338 340 340 340 339 332 328 331 335 335 332 331 329 326 325 324 324 327 331 332 333 334 333 334 335 336 335 334 333 333 333 332 331 330 330 330 330 331 330 330 331 332 333 333 332 330 330 331 330 329 328 329 328 328 328 329
322 324 322 322 321 322 320 317 318 318 316 316 316 318 318 321 322 322 321 320 320 319 320 322 323 324 325 324 330 332 333 337 338 338 338 336 337 339 338 337 336 338 340 339 340 338 331 328 330 335 336 333 332 329 326 325 324 323 326 330 331 332 334 333 333 334 335 334 333 332 333 332 330 330 329 329 329 330 330 330 331 331 332 332 332 332 330 330 331 330 329 328 329 328 327 327 328
322 323 322 323 322 320 318 318 318 318 317 316 316 316 318 320 321 321 320 321 320 320 321 321 322 323 322 323 330 333 333 337 337 337 337 336 338 338 338 337 336 338 339 338 340 338 331 328 329 334 336 334 333 329 326 325 325 324 324 326 329 332 334 332 332 333 334 334 332 332 332 331 330 330 329 330 329 329 329 329 330 331 331 331 331 331 330 330 330 330 329 329 328 328 326 327 328
322 321 321 323 321 316 314 316 317 318 317 316 317 316 318 320 321 321 320 321 319 320 321 321 321 322 320 322 330 333 336 336 336 337 336 336 338 338 338 336 336 337 338 339 340 339 333 328 328 332 335 334 333 330 327 326 326 325 324 323 325 330 332 332 331 333 334 333 332 332 332 331 331 330 329 329 329 329 328 328 330 330 331 331 331 330 330 330 330 330 329 329 329 328 327 327 328
322 320 322 322 317 313 312 314 316 318 317 316 317 317 318 319 321 321 320 320 319 321 321 320 320 320 320 322 330 334 336 336 336 337 336 337 337 338 338 337 336 337 338 339 340 340 337 331 328 328 331 334 334 332 329 327 326 325 325 323 321 325 330 330 331 331 331 331 331 331 332 331 331 330 330 329 328 328 327 329 331 330 330 330 330 330 329 329 329 329 329 328 328 328 327 327 327
323 320 321 319 316 315 315 314 316 318 317 317 317 317 318 319 320 321 320 319 318 320 320 320 319 319 319 321 329 334 336 336 337 337 336 336 337 338 337 337 336 336 338 338 339 340 338 335 331 328 329 332 334 333 330 328 327 325 325 324 320 322 326 328 327 327 328 329 330 329 330 330 330 330 330 328 327 327 328 330 330 330 330 329 330 329 329 329 328 328 327 328 328 328 327 326 326
323 322 321 319 319 319 316 315 317 318 317 317 318 317 317 319 320 320 319 318 318 319 319 319 319 319 319 322 328 332 336 337 337 337 336 335 336 337 337 337 336 336 337 338 339 339 339 338 335 332 331 332 334 334 332 330 329 326 325 325 323 321 322 324 324 324 326 327 327 328 328 328 329 330 329 328 326 327 328 329 330 330 330 329 329 329 328 328 327 327 327 328 328 328 327 326 326
322 322 322 320 321 320 317 316 316 315 315 318 318 317 317 318 319 319 318 317 317 317 318 319 318 319 319 322 325 329 335 338 337 336 336 335 336 337 337 337 337 336 337 337 338 338 339 339 338 336 334 334 335 334 333 332 331 328 325 326 326 323 320 320 321 321 323 324 324 325 325 325 326 328 329 327 326 326 328 328 329 330 329 328 328 327 327 327 326 327 327 327 328 327 327 326 326
321 321 322 321 319 318 317 317 315 314 315 319 318 317 318 317 317 319 318 317 317 316 317 318 318 319 317 321 324 327 336 338 337 336 336 336 336 337 337 337 337 337 336 337 337 337 338 338 339 338 335 335 336 336 335 333 332 330 327 326 326 326 322 320 319 319 319 320 321 322 322 322 322 325 328 328 326 325 327 329 329 330 329 328 327 326 327 326 326 327 327 327 327 327 326 326 326
321 322 322 320 318 316 317 318 316 314 316 319 317 317 318 316 316 317 315 315 316 316 316 318 318 319 318 325 331 333 337 337 336 336 336 335 336 337 337 337 337 337 337 337 337 337 337 338 339 339 337 336 338 337 337 335 333 332 329 327 327 326 325 322 320 319 319 318 319 319 319 320 320 322 327 328 327 325 326 329 329 329 328 327 326 326 326 326 326 326 327 327 326 326 326 326 326
320 322 322 318 317 316 316 318 315 314 317 318 316 317 317 316 316 315 314 314 316 316 315 318 318 320 321 326 334 339 337 336 337 336 336 335 335 336 337 337 337 337 337 337 337 337 337 337 338 339 338 338 339 338 338 337 334 333 331 329 328 327 327 324 322 320 319 319 319 318 320 324 323 323 326 327 328 326 325 327 329 328 327 326 325 325 325 325 326 326 326 326 325 325 326 326 326
319 321 319 317 318 318 318 318 316 316 318 317 317 317 317 317 315 314 314 314 316 315 315 317 317 320 324 324 331 338 336 336 337 336 336 336 335 335 336 337 337 337 337 338 338 338 338 338 338 339 339 338 339 338 338 338 335 334 333 331 329 328 327 325 324 323 323 322 319 322 325 327 327 326 327 327 327 327 325 325 327 327 327 326 325 325 325 324 325 325 325 325 325 326 326 326 326
319 321 319 318 320 319 318 318 316 316 317 317 317 318 317 317 316 315 315 315 315 314 315 316 316 320 323 324 330 336 335 336 336 336 336 336 336 335 336 336 336 336 337 337 337 338 338 338 338 338 339 338 338 338 338 338 336 335 335 334 331 330 327 326 328 328 328 326 323 326 329 328 327 327 326 326 326 326 325 324 325 326 326 326 324 323 323 323 324 324 324 324 325 326 326 326 326
319 321 319 321 321 318 317 317 316 316 317 317 317 317 317 317 316 314 314 315 314 314 315 315 315 318 323 324 329 334 335 335 336 337 337 337 337 336 336 336 335 335 335 336 336 337 337 337 338 338 338 338 338 337 337 337 337 336 336 335 333 332 330 329 330 330 329 329 327 328 328 327 328 327 323 323 325 325 325 325 324 324 325 325 324 323 323 322 322 323 323 324 325 325 325 325 326
318 319 319 320 319 317 316 316 315 314 315 317 316 317 316 316 315 314 314 316 315 315 315 315 315 316 322 324 328 333 335 336 336 337 338 338 338 337 337 337 336 336 335 335 335 336 336 337 337 338 338 338 338 337 337 337 337 336 336 336 334 333 332 331 331 330 330 330 329 329 329 327 327 325 320 321 325 325 325 325 324 324 325 325 324 325 323 321 322 323 323 324 325 324 324 324 325
317 317 318 318 318 317 315 314 314 313 314 316 316 316 316 315 314 315 315 315 315 315 315 316 316 315 320 324 329 334 335 336 336 337 338 338 338 337 337 337 337 337 336 336 335 335 335 336 336 337 338 338 338 337 337 336 336 336 336 336 335 333 332 331 331 330 329 329 328 329 329 327 327 326 323 324 327 326 325 325 324 325 325 325 324 324 323 322 323 323 323 324 324 324 324 324 324
317 317 316 316 316 316 315 313 312 312 314 316 316 316 315 314 314 315 315 315 315 314 315 315 315 319 323 326 330 333 334 336 337 337 338 338 338 338 337 338 338 338 337 336 336 335 335 336 336 336 337 337 337 337 337 336 336 336 336 336 334 334 333 331 331 330 330 329 329 328 328 327 327 327 326 326 327 326 326 325 325 325 324 324 324 323 323 322 323 323 323 323 323 324 324 324 324
316 317 316 314 314 315 313 312 310 312 314 315 315 315 315 314 315 314 315 316 315 313 314 314 315 322 326 327 329 331 333 335 336 337 338 338 338 338 338 338 338 338 337 337 336 336 335 336 336 336 337 337 337 337 337 336 336 336 336 335 334 334 333 332 331 330 330 329 329 328 328 328 327 327 327 326 325 325 326 326 325 325 324 324 324 323 323 322 322 323 323 323 323 323 323 323 323
316 316 315 314 313 313 311 311 310 311 312 312 313 314 315 315 314 313 314 316 315 313 314 316 317 320 323 325 327 329 332 334 335 336 337 338 338 338 339 338 338 338 337 337 337 336 336 336 336 336 337 337 337 336 336 336 336 336 336 335 334 333 332 332 331 331 330 329 329 328 328 328 327 327 327 326 325 324 325 324 324 324 324 324 323 323 322 321 322 322 322 323 322 323 322 322 323
316 316 315 314 313 312 311 311 311 311 312 311 313 315 314 312 312 314 315 315 315 314 314 317 319 319 320 323 325 327 330 332 334 335 336 337 338 338 338 339 338 338 338 337 337 337 336 336 336 336 337 337 337 337 337 336 336 336 336 336 335 333 332 332 331 331 329 329 329 328 328 328 327 327 327 326 325 324 323 321 321 322 323 322 321 321 321 320 322 322 322 322 322 322 322 322 322
315 315 314 313 313 312 312 312 311 311 312 312 314 315 313 311 312 315 316 314 313 313 313 316 318 318 320 321 323 327 329 331 334 334 336 337 338 338 338 338 338 338 338 337 337 337 336 336 336 336 336 337 337 337 337 336 336 336 336 336 335 334 333 332 332 330 329 329 329 328 328 328 327 327 327 326 325 324 323 320 319 320 321 320 318 320 320 320 321 321 321 321 321 321 321 321 321
314 314 314 313 313 313 312 313 312 313 313 311 314 315 313 312 313 315 315 312 312 313 313 315 317 316 318 320 323 326 329 330 333 334 335 337 337 337 337 337 337 337 337 337 337 337 337 336 336 336 336 337 336 337 337 336 337 336 336 336 335 335 333 332 332 331 329 329 329 328 328 328 327 327 327 327 325 324 323 321 320 320 320 318 316 317 318 318 320 321 320 320 320 320 321 320 320
314 314 315 313 314 314 313 314 312 313 314 312 313 313 313 314 314 314 313 311 312 313 314 316 317 316 317 319 323 326 327 329 332 334 335 335 335 335 335 336 336 336 335 336 337 337 337 336 336 335 335 336 336 336 336 336 336 336 336 336 335 335 334 333 332 331 330 329 328 328 328 328 327 327 327 327 325 324 323 322 321 320 319 319 316 315 313 314 318 319 318 318 318 319 319 319 319
314 314 315 314 314 314 314 314 312 314 313 311 313 311 313 316 315 314 313 312 313 313 314 316 316 316 317 320 323 325 327 328 331 333 334 334 334 334 333 334 335 335 335 336 337 337 337 336 336 335 335 336 336 336 336 336 336 336 336 335 335 335 335 334 332 331 331 330 329 327 327 327 327 327 326 327 326 324 323 323 323 321 320 319 317 316 311 311 316 319 318 318 318 318 319 319 319
313 313 314 314 312 312 314 313 313 314 312 311 313 310 312 316 316 313 312 311 313 314 314 315 315 316 317 319 321 322 325 327 330 331 332 333 333 334 333 333 334 335 335 335 336 336 336 337 336 335 335 335 335 335 335 335 335 335 335 335 335 335 335 334 333 332 331 330 329 328 327 327 327 327 326 326 325 324 323 324 324 323 322 321 320 318 313 312 316 319 318 318 319 318 318 319 319
314 312 311 313 312 312 314 313 313 314 312 312 313 310 312 316 314 312 311 311 312 313 314 314 315 316 316 318 319 319 321 325 327 328 330 332 332 334 334 334 334 335 336 336 336 336 336 336 336 335 335 334 334 335 335 335 335 334 334 334 335 335 334 334 333 332 332 331 330 328 328 328 327 327 326 325 325 325 324 324 325 324 324 324 322 320 316 313 315 317 317 317 318 318 318 319 319
314 311 309 312 312 312 313 313 312 314 314 313 312 312 313 315 314 311 311 312 312 313 314 314 314 315 315 315 316 316 317 320 324 326 327 329 331 333 334 334 335 336 336 336 336 336 336 336 336 335 335 334 334 334 334 334 334 333 333 334 334 335 334 333 333 333 332 332 331 330 329 329 328 328 327 327 326 326 326 325 324 324 325 325 323 321 318 315 313 314 315 315 315 317 318 318 318
312 311 311 313 313 311 312 313 313 313 314 314 313 313 314 315 315 313 312 312 313 313 314 314 314 314 314 314 315 315 315 316 319 323 325 326 329 331 332 333 333 335 335 335 336 336 336 336 336 335 335 335 334 334 333 333 333 333 333 333 333 334 334 333 333 333 333 332 332 331 330 330 329 328 329 329 328 328 327 327 324 323 325 325 324 322 320 317 314 313 314 313 312 314 317 318 317
310 310 311 313 313 311 311 313 313 313 313 314 314 313 313 314 315 315 313 313 313 314 314 314 315 314 314 315 315 315 315 315 316 318 321 323 326 328 329 330 331 332 333 334 335 336 336 336 336 335 334 335 335 334 333 332 332 332 332 332 332 333 333 333 333 332 333 332 332 332 331 330 329 329 328 328 329 328 328 328 327 325 326 325 324 323 322 319 315 313 314 315 314 313 315 317 317
313 312 311 311 311 310 312 313 312 313 313 314 314 313 314 314 314 315 315 314 314 314 314 315 315 315 315 315 315 316 315 315 316 316 317 319 322 325 327 328 328 329 330 332 333 334 335 336 336 336 334 334 334 334 334 333 332 332 331 331 331 332 333 333 333 332 332 332 331 331 331 330 330 330 329 329 328 329 328 328 327 326 326 325 324 324 324 322 318 316 315 315 316 315 314 315 316
314 314 312 312 311 310 312 314 311 312 313 314 314 314 314 314 314 315 315 315 315 315 315 315 315 315 316 316 315 316 316 317 318 319 318 318 319 321 322 325 327 327 328 329 330 332 333 334 335 335 335 334 334 334 334 333 333 332 332 332 331 331 332 332 333 332 332 331 331 330 330 330 330 330 329 330 329 329 329 328 326 325 326 325 324 325 325 324 321 318 316 315 316 315 314 314 314
313 313 312 311 312 311 313 314 311 312 312 313 315 314 314 315 315 315 315 315 315 315 315 315 315 315 316 317 317 318 317 320 323 321 319 318 316 316 317 319 323 326 327 327 327 329 330 332 333 335 335 333 333 333 333 333 333 333 332 332 332 331 331 331 332 332 332 332 332 331 331 330 330 329 329 330 330 330 329 327 325 324 325 325 325 325 324 324 322 318 316 315 315 315 314 314 313
313 313 312 311 312 312 312 313 312 312 312 313 315 315 315 315 315 315 315 315 316 315 316 315 316 315 316 316 317 319 319 321 323 321 318 317 316 315 314 314 316 320 324 326 327 327 328 331 332 333 334 333 333 332 332 333 333 333 333 333 332 332 332 332 331 331 332 332 331 331 331 330 329 330 329 330 330 330 330 328 325 325 326 326 326 325 323 322 321 319 318 317 315 314 314 314 313
313 314 311 311 315 312 311 313 313 312 311 313 315 315 314 315 315 315 316 316 316 316 316 317 318 318 317 318 320 320 320 321 322 320 318 318 317 316 315 314 313 314 318 323 326 327 328 329 330 331 332 332 333 332 331 333 333 333 333 333 332 332 332 333 332 332 331 331 331 331 331 331 330 330 331 330 330 330 330 329 327 326 327 327 326 325 323 322 322 321 321 319 317 314 314 314 313
315 317 313 313 316 314 312 314 313 313 312 313 314 312 312 314 314 314 315 316 316 316 316 316 317 318 319 320 322 321 320 320 321 320 319 317 317 317 316 314 312 312 314 318 322 325 327 328 328 329 330 331 332 331 330 332 332 332 332 332 331 331 332 333 333 332 332 332 332 331 331 331 330 330 330 330 329 329 329 329 328 328 328 328 326 325 323 324 324 322 321 320 317 315 315 314 313
313 318 316 314 314 314 314 315 314 313 313 314 314 310 309 313 315 314 315 316 315 315 315 314 315 316 317 317 318 318 319 319 319 318 319 319 318 317 316 314 313 313 313 313 316 322 326 326 327 328 330 330 331 331 330 330 331 332 331 331 330 330 331 331 331 331 332 331 331 331 331 331 330 330 330 329 328 327 327 328 328 328 328 326 326 325 324 323 323 321 320 319 317 316 315 314 313
311 317 318 315 315 316 316 317 314 311 312 314 313 311 310 312 314 316 316 315 314 315 314 314 314 315 317 317 316 316 317 317 317 317 316 316 317 317 316 315 314 313 313 312 313 317 322 325 326 327 328 329 330 330 330 330 331 331 330 330 330 330 330 330 330 330 330 330 329 330 330 331 330 329 328 328 327 327 328 329 328 329 327 325 325 326 325 324 323 321 319 318 319 317 314 313 313
314 318 318 315 316 317 317 317 314 312 314 313 314 315 312 310 313 316 316 314 314 315 315 315 315 315 316 316 315 315 316 315 316 317 316 315 315 315 315 314 314 313 312 311 311 313 317 321 324 326 327 328 328 329 330 330 329 329 330 329 329 330 330 330 329 329 329 329 329 329 329 329 329 328 328 328 328 328 329 329 329 329 328 325 325 326 326 326 325 323 321 320 319 318 315 313 313
316 316 317 316 318 319 318 316 314 314 314 311 314 316 311 309 312 315 315 312 313 314 314 315 316 316 316 315 315 316 315 315 315 316 317 317 316 314 313 313 313 312 311 311 311 311 312 316 320 323 325 326 327 327 328 329 328 328 329 329 328 328 329 329 329 329 329 329 330 330 329 329 329 330 330 329 329 329 330 329 329 328 328 326 326 326 327 326 325 324 324 323 321 320 318 315 313
315 314 316 317 318 318 318 316 314 314 313 311 315 316 311 309 310 312 313 312 313 314 314 315 316 316 316 316 317 316 315 315 315 315 316 317 316 313 312 311 311 312 310 309 310 310 311 313 317 320 323 324 325 326 327 327 326 326 327 328 328 327 327 328 329 329 328 329 329 330 330 330 330 331 331 330 330 329 329 328 328 328 327 326 326 326 325 325 325 325 324 323 322 320 317 315 313
314 316 316 316 316 315 315 314 313 313 313 313 315 316 312 309 309 311 314 313 313 314 314 315 315 315 317 316 316 315 313 313 314 314 316 316 314 312 311 310 313 313 309 309 310 310 311 314 316 319 321 323 324 324 325 325 325 325 326 327 327 327 327 327 327 328 328 327 328 328 329 329 329 329 329 329 328 327 327 327 328 327 326 326 325 325 325 325 325 325 324 322 321 318 317 315 314
316 318 315 314 314 314 313 313 313 313 313 312 312 314 314 310 309 311 314 313 312 312 313 314 315 316 317 317 316 314 313 313 313 315 317 317 315 314 313 314 316 314 311 311 312 312 314 315 316 318 320 322 323 323 323 324 324 324 325 326 326 326 326 326 326 327 326 326 326 327 327 327 327 327 328 328 327 327 326 327 327 326 326 326 326 325 325 325 324 324 323 321 320 319 318 316 315
316 315 313 313 314 314 314 313 313 313 312 310 308 312 314 311 310 312 313 313 312 312 313 313 314 315 316 317 317 316 315 314 314 316 318 317 318 318 318 317 317 316 314 315 314 315 316 317 318 318 320 321 322 322 322 323 324 324 324 324 325 325 326 326 325 325 325 325 325 325 325 325 325 325 326 326 326 326 326 326 326 325 325 325 325 324 324 323 322 322 322 321 320 319 318 317 316
314 315 313 312 313 314 315 314 314 313 312 310 309 312 313 311 311 314 314 313 313 312 312 313 313 313 313 315 315 316 316 315 315 318 319 319 320 320 319 319 318 318 317 317 317 317 318 319 319 319 321 322 321 320 320 321 323 323 323 324 324 324 325 325 325 324 324 324 324 324 323 324 324 324 324 324 324 324 324 324 324 324 324 323 323 323 322 322 322 322 322 321 320 319 317 316 315
316 318 315 312 313 314 314 314 314 314 312 310 309 311 311 310 312 314 314 313 313 311 310 312 312 312 313 313 314 315 316 315 316 319 319 319 319 319 319 319 319 319 318 318 318 319 319 320 320 321 321 320 318 318 319 320 322 322 323 323 323 323 324 324 324 324 323 323 323 323 323 322 322 323 323 323 322 322 322 323 323 322 322 322 321 321 321 321 321 321 321 321 320 319 317 316 315
315 317 315 313 314 313 312 312 312 312 312 311 310 311 311 312 314 315 314 313 313 311 310 310 311 312 313 313 315 317 316 315 316 320 320 318 318 318 318 318 318 318 318 318 318 319 320 320 321 322 320 317 316 317 319 320 321 321 322 322 322 323 323 322 323 322 322 322 322 323 322 322 322 322 322 322 322 321 320 320 320 320 320 320 320 320 319 319 319 319 320 319 319 319 317 317 316
313 313 313 312 314 314 312 310 309 309 311 312 312 312 311 311 313 314 315 314 312 311 310 311 312 313 313 315 317 319 318 316 316 318 318 318 318 317 318 318 318 317 318 318 318 318 320 321 321 322 319 316 316 317 318 319 320 320 320 320 321 321 320 320 321 321 321 321 321 322 322 321 321 321 321 320 320 320 319 318 318 318 318 318 318 318 318 318 317 317 317 317 317 317 317 316 316
313 313 314 312 312 313 310 310 311 310 311 311 312 312 310 309 311 312 313 312 312 312 311 310 311 312 313 316 319 319 317 315 314 315 316 317 318 317 317 317 317 317 318 318 318 318 319 320 320 321 318 317 317 317 318 319 319 319 319 319 319 320 320 320 320 320 321 321 320 320 320 320 320 320 319 318 317 317 317 317 317 316 316 316 316 317 316 316 316 316 316 316 315 315 315 315 315
313 313 314 312 313 312 310 311 312 312 313 311 311 310 309 309 310 310 311 311 312 313 312 311 310 311 314 317 319 318 316 315 314 314 316 317 318 317 317 317 316 316 316 316 316 316 317 318 319 320 319 318 318 318 318 318 319 319 319 319 319 319 320 320 320 320 320 320 319 319 318 318 318 317 316 316 315 314 314 314 314 314 314 314 314 315 315 314 314 314 314 314 314 313 313 313 313
312 311 313 313 314 313 311 312 311 311 312 311 311 311 310 311 311 311 311 312 311 311 313 313 312 312 315 317 318 318 316 314 314 315 315 316 317 316 316 316 315 314 314 314 314 315 315 316 317 318 318 318 318 318 318 318 318 319 319 319 319 319 319 318 318 318 318 318 317 316 316 316 315 315 314 314 313 312 312 312 311 311 312 312 312 312 313 313 312 312 312 312 312 312 312 312 312
312 312 312 312 313 312 311 312 311 311 311 310 312 311 309 311 313 312 312 312 312 313 314 315 314 313 314 315 317 317 316 313 313 315 316 316 317 315 314 313 312 312 312 312 313 314 314 315 315 316 316 316 316 317 317 317 317 318 318 317 317 317 317 317 316 316 316 315 314 314 314 313 313 312 312 311 311 310 310 310 310 310 310 310 310 310 311 311 311 311 311 311 311 311 311 311 311
315 313 313 313 313 312 313 314 312 311 311 310 311 311 310 312 313 311 311 311 311 312 314 314 314 312 313 315 315 315 314 312 312 315 315 315 316 315 313 312 311 311 311 311 312 312 313 313 314 314 314 314 315 315 315 315 315 315 315 315 315 314 314 314 314 313 313 313 312 312 311 311 310 310 310 309 309 309 309 309 309 309 309 309 309 309 309 309 309 310 310 310 310 310 310 310 310
Wind_Speed
5 5 3 3 4 5 5 3 3 3 3 3 2 2 4 4 4 7 8 7 5 6 3 4 7 4 1 4 4 5 8 7 6 2 2 5 12 13 12 15 16 16 16 16 16 15 13 12 11 10 10 10 10 10 11 11 12 12 13 14 14 11 8 9 11 12 14 15 15 15 15 15 15 15 15 15 14 16 16 16 16 16 16 16 16 16 16 16 17 17 17 17 17 17 17 16 16
5 5 4 4 4 5 2 1 4 3 4 3 3 1 7 6 5 7 8 6 6 7 4 5 7 3 2 4 2 1 6 9 8 6 6 10 14 12 13 15 16 16 16 16 15 15 13 12 11 10 10 10 10 10 10 12 13 14 13 12 12 11 8 9 11 12 14 14 15 15 15 14 14 15 14 15 14 14 14 15 15 15 16 16 16 16 16 16 16 16 17 17 17 17 17 17 16
5 4 3 4 4 4 2 2 5 3 4 2 4 4 7 6 6 7 8 8 9 9 6 6 6 3 1 2 1 2 4 6 8 9 8 12 12 11 14 14 15 15 15 16 15 14 14 12 11 10 10 10 10 9 10 11 13 13 12 11 11 11 8 8 10 11 13 14 15 15 14 14 14 14 14 14 14 14 14 14 14 14 15 15 15 15 15 15 15 16 16 16 16 16 16 16 16
4 4 4 4 4 4 4 5 4 4 3 1 4 6 7 6 7 10 10 9 9 8 6 7 5 2 3 2 2 2 5 6 7 9 8 10 9 13 15 14 15 13 14 15 14 14 14 13 12 11 10 10 9 9 9 10 12 12 12 12 11 11 8 7 10 11 12 13 14 15 14 14 13 13 13 13 13 13 12 12 13 14 14 14 15 15 15 15 15 16 16 16 16 16 16 15 15
4 5 5 5 3 2 3 3 3 5 1 1 3 7 7 6 9 10 9 8 7 7 6 7 4 3 2 3 3 2 5 6 7 9 10 9 11 16 15 14 14 13 14 14 14 14 14 14 12 11 10 10 9 8 8 9 11 12 12 11 11 11 8 7 9 10 11 12 13 14 13 13 13 13 13 12 13 12 10 11 12 13 13 14 14 15 14 15 15 15 15 15 15 15 15 15 15
4 4 5 4 2 1 3 3 4 4 2 4 2 7 7 6 10 11 10 8 6 3 3 6 2 3 3 1 2 4 4 4 8 9 11 12 13 17 16 15 13 13 13 13 13 13 15 14 12 11 10 10 9 8 8 9 11 12 12 11 11 10 8 7 9 10 11 12 13 13 13 13 12 12 12 12 12 11 10 10 10 10 12 13 14 14 14 14 14 14 14 14 14 14 15 14 15
4 3 4 4 2 1 5 5 4 3 3 4 3 5 8 8 9 11 11 7 5 3 3 4 2 2 3 4 2 5 5 4 8 9 12 14 16 17 16 14 13 13 13 13 13 13 15 14 13 11 10 10 9 8 7 9 9 10 12 11 10 10 7 6 8 9 10 12 13 13 12 12 11 11 12 11 11 11 10 10 10 11 12 12 13 14 13 13 13 13 13 13 13 13 13 14 14
6 3 2 4 4 3 6 4 2 1 3 3 2 2 5 9 9 10 10 7 5 6 6 4 3 4 3 3 2 5 5 6 9 11 14 17 18 17 15 14 14 14 12 13 12 13 15 15 14 12 11 10 9 8 7 8 8 9 10 10 10 11 8 6 7 9 10 10 11 12 12 10 10 11 11 11 11 11 10 10 12 12 12 12 12 13 12 12 12 12 12 12 12 12 12 13 13
6 4 1 3 4 4 5 4 1 2 3 3 3 2 3 7 9 9 9 6 5 6 7 7 5 3 4 4 3 6 6 7 10 12 15 18 18 17 14 14 14 14 13 13 12 13 15 15 14 12 11 9 8 8 7 7 7 8 8 9 11 11 9 6 6 9 9 9 10 11 11 10 10 10 10 11 11 11 10 10 11 11 11 11 11 11 12 12 11 11 11 11 11 11 12 13 13
5 4 2 4 4 5 5 4 2 3 5 3 3 4 4 6 7 9 9 7 7 7 7 5 4 2 2 5 5 5 7 10 12 13 15 18 18 16 14 13 14 14 13 12 12 13 14 15 14 12 10 9 8 7 7 6 7 7 7 8 9 10 10 8 8 8 8 8 9 9 9 9 9 8 9 10 10 10 10 10 10 10 10 10 10 10 11 10 10 10 10 10 10 10 11 12 12
4 4 2 4 5 5 5 4 4 3 5 3 3 5 6 7 7 7 8 6 7 7 7 5 4 4 2 4 4 5 10 12 13 14 16 18 17 16 14 13 13 14 13 12 12 12 13 14 14 13 10 9 8 7 7 6 6 6 6 7 8 9 10 10 9 8 8 7 7 7 8 8 7 8 8 9 10 10 10 9 9 9 9 9 9 9 9 10 9 9 9 9 9 9 9 11 12
3 5 3 5 6 5 3 3 4 4 5 4 6 6 5 8 7 7 8 6 7 6 8 7 2 3 5 3 4 8 12 12 14 16 17 18 17 16 14 13 13 14 13 12 11 11 12 13 13 12 11 9 8 7 7 6 5 5 5 5 6 8 9 10 9 8 8 7 6 6 7 7 7 7 8 8 9 10 10 9 8 8 9 9 9 9 9 9 8 8 8 9 8 8 9 11 11
4 4 6 5 3 2 2 2 4 4 4 4 6 8 6 9 9 8 8 6 8 7 7 7 1 2 4 4 6 8 11 13 15 16 17 17 16 15 14 13 13 13 13 13 11 11 12 12 12 12 11 10 9 8 7 7 5 5 5 4 5 5 7 8 8 7 7 7 7 6 7 7 7 7 8 7 7 10 10 9 8 8 8 8 8 8 8 7 7 8 8 9 8 7 8 11 11
3 2 4 3 1 2 2 2 4 4 4 6 7 9 8 7 6 6 6 7 7 4 4 4 1 3 3 5 6 6 10 16 17 17 17 16 16 15 13 13 13 13 13 13 12 11 11 12 12 12 12 10 9 9 8 7 6 5 5 4 4 4 5 7 7 7 6 6 6 6 6 6 7 7 9 7 5 9 10 9 8 7 7 7 7 7 7 7 8 8 9 8 7 7 8 10 10
3 2 3 2 2 4 3 1 4 5 4 9 7 10 9 3 2 4 5 4 4 5 4 3 0 1 1 2 3 7 15 19 18 18 17 16 16 14 13 13 13 13 13 13 13 12 12 12 13 12 11 11 10 10 9 8 8 6 5 5 4 3 4 5 6 7 6 5 4 4 4 4 5 7 9 7 5 8 10 8 6 6 6 6 6 7 7 7 8 8 8 8 7 7 9 10 9
3 3 3 3 4 5 4 3 4 4 4 10 8 10 10 4 2 4 0 2 3 5 3 3 2 2 4 4 6 12 20 20 19 18 17 16 15 14 13 13 14 13 13 14 14 13 13 12 12 12 12 12 11 10 9 9 9 7 6 5 4 4 3 3 4 5 5 4 4 4 4 4 4 7 9 7 5 7 9 8 6 5 5 6 6 6 7 7 7 7 7 7 6 7 8 9 8
2 3 5 4 5 5 6 6 4 3 7 9 9 10 10 7 4 2 2 3 1 5 4 2 3 1 5 6 8 14 21 20 20 19 18 16 15 15 14 14 14 14 14 14 14 14 13 13 12 11 11 12 11 10 9 9 9 8 8 6 5 4 4 3 3 4 5 4 4 4 5 5 5 6 6 6 6 6 7 8 7 5 4 5 5 6 6 6 7 6 6 6 5 6 7 7 7
2 4 5 5 6 5 5 7 3 2 8 9 10 12 10 8 7 4 3 5 3 4 6 3 3 3 7 9 8 13 19 19 21 20 19 18 16 16 16 16 16 15 15 15 15 14 14 14 13 12 12 12 11 10 9 9 9 9 8 8 7 6 5 4 4 4 5 4 4 5 5 5 5 6 6 5 5 6 6 7 7 6 4 5 4 5 6 6 6 5 5 5 6 6 6 5 5
4 4 5 6 4 3 2 4 3 2 6 11 10 11 8 7 10 7 5 8 7 6 7 7 6 7 9 10 10 14 18 19 21 20 20 19 17 17 17 17 17 17 17 16 16 16 15 15 15 14 12 12 11 9 8 8 9 9 9 8 7 7 7 5 5 5 5 5 5 6 4 5 6 6 7 8 7 6 7 8 7 6 5 5 4 4 6 6 6 5 5 5 6 6 5 3 4
4 4 6 4 4 5 3 3 5 4 3 11 11 9 6 5 8 8 7 8 9 9 7 8 9 10 10 11 13 14 16 19 20 20 19 19 18 17 17 17 18 18 18 17 17 17 17 16 15 15 14 13 13 11 9 8 8 9 10 9 8 7 8 7 7 6 6 6 5 5 4 5 6 6 8 9 7 5 5 7 7 5 5 5 3 2 3 4 4 5 6 6 6 4 3 3 3
3 4 4 2 5 5 4 4 5 4 3 7 11 8 7 5 6 7 7 7 7 10 9 10 10 11 12 13 14 16 16 19 20 20 19 19 19 17 16 16 16 16 16 17 17 18 18 17 16 16 15 14 14 13 11 10 10 10 10 9 9 8 8 9 8 7 7 7 6 5 4 6 6 5 8 8 6 5 5 6 5 4 4 4 2 2 2 3 3 4 5 5 3 2 3 4 4
3 4 3 4 3 3 5 4 4 3 3 4 10 9 8 6 6 8 9 7 3 3 4 6 6 8 13 15 15 16 16 18 20 20 19 20 19 17 16 15 15 15 16 16 16 18 18 18 17 16 16 16 15 14 13 12 11 11 11 10 10 9 9 10 9 8 8 7 7 6 5 6 6 5 7 7 6 6 6 6 5 5 5 4 4 3 2 3 3 3 4 3 3 4 4 4 5
4 4 2 4 3 3 5 4 3 1 1 5 8 7 7 7 7 7 10 9 3 7 5 5 3 2 11 17 15 15 15 16 19 21 21 20 20 19 17 16 16 16 16 16 16 16 18 18 18 17 16 16 16 15 14 13 12 12 12 12 11 11 10 10 10 9 9 8 8 7 6 6 6 6 7 7 7 7 6 6 6 6 6 6 5 5 5 5 5 5 5 5 5 5 5 5 5
6 3 5 2 4 4 3 4 2 0 2 3 3 4 6 10 7 4 10 10 4 8 6 6 5 4 10 14 13 14 15 17 19 21 21 20 21 20 18 16 15 16 16 16 16 16 18 19 19 18 17 17 17 16 15 14 13 13 13 13 12 12 11 10 11 11 9 9 9 9 8 7 7 6 7 8 8 7 7 7 6 6 7 6 7 6 7 7 6 6 6 6 6 5 6 7 6
9 3 6 3 3 4 3 3 3 2 1 1 2 5 6 5 2 2 10 11 5 6 5 6 5 5 8 11 13 13 14 16 17 18 19 18 18 19 18 16 15 15 16 17 17 17 18 19 20 20 18 18 17 16 17 16 14 14 14 13 12 13 14 11 11 11 10 10 10 10 10 9 8 7 8 8 8 8 8 8 8 7 7 7 8 7 8 8 7 6 6 6 6 5 6 7 7
6 3 6 5 4 4 3 3 4 3 2 2 5 6 3 2 1 5 11 8 6 7 5 5 6 6 8 9 12 13 13 15 16 17 18 16 16 18 19 18 16 16 17 17 17 17 18 20 21 21 20 19 18 17 17 17 16 16 15 13 12 15 15 12 12 13 11 10 10 11 11 10 9 9 8 8 9 9 10 11 9 8 8 8 8 8 8 9 7 7 7 6 7 6 6 7 7
2 6 7 6 5 3 1 2 4 3 3 4 6 5 3 2 2 6 7 5 5 6 7 6 6 6 7 8 9 11 12 14 17 16 16 16 16 17 19 19 19 17 16 17 17 17 18 20 21 21 21 20 19 18 18 17 16 16 15 13 14 15 14 12 12 13 12 11 11 11 11 11 10 10 10 9 9 10 11 12 10 10 9 9 9 8 9 10 8 7 7 7 7 7 7 7 8
5 9 8 6 4 4 2 3 5 2 3 4 4 3 3 3 4 6 4 5 4 7 9 8 8 8 8 9 9 9 10 13 15 15 16 18 17 17 19 20 20 18 17 18 18 17 18 20 21 21 22 21 21 20 18 18 17 17 15 14 14 14 15 16 13 12 12 12 12 12 11 12 12 11 11 11 10 10 11 11 11 11 10 10 11 10 11 12 9 8 10 10 8 7 7 8 9
7 8 6 6 4 4 4 3 4 3 2 4 3 3 5 7 10 7 7 5 5 8 9 8 9 8 8 9 8 8 9 11 13 14 16 17 17 18 19 20 20 19 18 18 18 18 18 19 20 21 22 22 21 21 19 18 17 17 16 14 15 15 15 17 15 13 13 12 12 13 12 12 12 12 12 12 11 11 11 12 12 12 11 11 12 12 13 13 12 12 13 14 12 10 8 8 9
6 6 4 6 5 6 6 3 4 3 2 3 3 4 7 12 14 8 9 6 7 8 8 8 8 8 8 8 7 8 9 11 13 15 16 17 17 17 18 19 20 20 18 17 19 20 19 19 19 20 22 22 21 21 20 19 18 18 17 15 16 18 17 16 15 15 16 16 14 13 12 12 12 12 12 13 13 12 12 14 14 13 13 13 14 14 14 13 13 13 13 13 12 11 10 9 10
6 5 4 5 6 5 6 4 5 5 2 3 5 5 6 6 11 8 7 6 7 8 8 8 8 8 8 7 7 8 9 12 14 16 16 16 16 16 17 17 19 20 18 17 20 21 20 19 19 20 22 22 22 21 21 21 19 18 19 17 16 18 20 19 17 17 18 19 17 14 13 12 12 13 13 13 14 14 14 16 15 14 14 15 15 15 14 13 12 11 11 11 10 11 11 10 10
5 5 5 7 6 4 6 4 5 4 3 6 6 5 7 3 9 6 5 6 7 8 9 8 8 8 8 7 8 8 8 12 14 16 16 17 16 15 16 17 19 20 19 18 19 21 21 20 20 20 21 23 22 21 21 21 20 19 18 18 18 18 20 22 20 19 20 23 21 17 17 15 13 13 13 13 16 17 18 18 17 16 17 16 15 16 15 14 13 12 12 12 11 11 11 11 11
5 6 6 7 8 5 5 4 3 2 3 8 8 5 6 3 7 4 4 6 8 9 9 9 8 8 8 7 7 7 8 10 12 15 16 17 17 16 16 17 19 20 20 19 18 21 22 21 21 20 20 22 22 21 22 22 20 20 19 18 19 19 18 21 21 21 23 26 26 23 22 20 17 15 14 15 19 21 21 21 20 19 20 18 16 18 17 16 16 16 15 16 15 13 12 13 13
6 6 4 4 7 6 4 4 4 4 4 8 10 8 10 4 6 6 6 7 8 9 9 9 8 8 8 7 7 7 8 9 10 14 17 18 18 18 18 18 19 19 19 19 19 20 21 21 22 21 20 20 21 21 21 21 20 20 20 19 19 19 18 19 21 23 24 25 26 26 24 22 20 20 19 19 20 21 22 22 21 21 21 20 19 20 20 19 18 19 19 18 20 18 14 13 14
8 8 5 3 5 5 4 3 5 7 7 8 10 11 14 12 6 6 8 8 7 7 8 7 7 8 8 8 8 8 9 9 10 13 16 18 19 19 18 18 19 19 18 19 20 19 20 20 20 21 21 20 20 20 20 20 20 20 20 19 19 20 19 18 19 22 24 25 26 26 24 22 22 23 22 20 21 23 23 23 23 23 23 22 22 22 22 22 21 22 21 17 18 20 17 13 13
10 10 8 5 5 5 3 4 4 4 6 9 12 11 12 13 12 8 8 10 8 8 7 6 7 7 7 8 8 9 9 10 11 13 13 15 17 17 18 17 19 20 19 19 20 20 20 20 20 21 22 21 20 19 20 20 20 20 19 19 19 20 20 19 19 21 23 24 25 26 24 21 21 23 25 24 23 24 25 24 24 25 25 25 25 24 24 24 24 24 23 19 15 17 20 17 13
7 9 8 6 6 5 4 6 3 2 4 8 11 12 12 13 12 11 8 8 9 9 10 9 9 9 8 9 10 10 11 10 9 10 11 13 14 15 17 17 18 19 20 19 20 21 22 21 21 21 21 22 22 21 21 21 21 21 20 20 20 20 19 19 19 21 23 23 23 26 27 25 21 21 24 27 26 25 25 25 24 25 27 28 28 26 26 25 25 25 25 23 19 17 21 22 20
4 6 6 6 5 3 5 5 4 3 3 6 8 10 13 13 12 12 11 11 12 12 12 12 12 12 10 10 11 11 10 8 7 8 10 13 15 16 18 19 19 18 20 21 22 23 23 23 23 22 21 22 23 22 21 21 22 21 20 20 20 19 19 19 18 19 22 24 23 23 24 24 22 19 22 27 29 26 26 25 23 25 28 29 28 28 27 26 25 26 25 24 22 21 22 22 22
3 4 5 5 4 4 4 4 5 4 3 3 3 6 11 12 14 13 13 13 13 13 13 13 13 13 12 12 12 11 10 9 8 9 10 13 16 18 18 20 21 20 20 21 22 23 22 23 23 22 21 22 22 23 22 21 20 20 18 17 17 17 17 18 18 16 18 21 24 24 25 26 24 23 24 28 29 27 27 26 26 27 28 28 28 28 27 27 28 28 28 26 23 22 23 20 21
4 4 5 4 3 4 2 4 5 3 3 3 4 6 9 11 12 13 14 14 12 11 12 11 10 11 11 10 8 8 10 10 9 9 9 11 14 15 16 18 21 21 19 18 20 21 21 22 23 22 22 22 22 24 24 20 17 18 16 14 14 15 15 16 17 17 17 18 20 23 27 29 29 29 29 29 29 28 28 29 29 29 28 27 28 28 28 30 31 32 31 30 26 21 21 20 22
5 4 5 2 4 3 2 4 5 2 3 2 5 7 8 10 12 13 11 9 10 9 8 9 9 9 8 6 6 7 8 8 7 8 8 10 12 13 14 17 19 20 20 20 21 21 21 21 23 23 23 22 21 23 25 21 16 16 16 14 13 14 14 14 16 18 19 20 19 18 21 24 27 28 27 25 26 27 29 32 31 30 29 28 28 29 30 31 33 34 32 31 29 26 22 20 21
5 5 4 1 2 4 5 6 5 2 4 2 2 5 5 5 9 11 7 5 7 8 8 11 11 9 9 8 9 9 8 7 7 7 7 8 10 10 11 14 16 18 19 22 22 21 19 19 21 22 21 21 21 21 23 22 18 16 17 16 15 16 16 17 18 18 18 20 20 19 18 18 20 22 21 21 23 24 25 29 31 31 30 28 28 29 31 31 31 32 32 31 31 30 26 21 21
4 3 2 1 1 4 6 6 4 2 2 2 2 5 4 2 4 6 5 4 7 8 8 11 10 9 8 8 8 8 7 7 6 7 8 8 9 10 10 12 14 15 16 19 21 20 18 17 19 20 20 20 19 19 21 22 20 18 17 17 16 16 16 17 19 18 16 17 17 18 18 17 17 19 20 22 26 26 25 27 30 32 30 28 29 31 31 31 30 31 31 31 31 31 28 25 25
2 1 0 4 3 4 6 5 4 2 1 2 3 3 4 6 4 2 3 4 8 8 9 10 10 9 8 6 6 5 5 5 4 5 6 8 9 10 11 11 12 12 13 16 19 19 19 18 18 19 18 18 18 19 20 22 21 18 17 17 16 16 15 14 15 16 16 16 16 17 19 20 21 22 23 25 28 29 29 28 29 32 32 31 32 33 32 30 29 30 30 31 32 32 31 31 32
0 1 1 3 2 3 5 4 3 1 1 3 5 4 4 7 4 3 3 6 9 9 10 10 7 6 5 4 4 3 3 3 3 4 5 6 7 9 9 9 9 9 11 14 16 18 19 19 18 18 18 17 18 20 20 21 21 18 17 17 17 16 15 13 12 14 15 15 16 16 17 21 23 23 23 26 28 29 29 26 27 32 34 34 33 32 31 30 28 28 30 31 32 33 34 34 35
3 3 4 6 3 3 2 3 2 1 4 6 5 6 5 6 4 4 4 5 7 8 8 5 4 4 3 3 3 2 1 2 3 4 5 5 6 7 7 7 7 8 12 14 14 15 17 18 18 19 19 17 17 19 20 20 20 18 17 17 17 17 16 14 12 12 13 14 15 15 13 15 17 16 17 19 21 22 23 23 25 30 31 31 31 30 31 32 31 31 32 33 33 33 34 33 34
7 6 6 7 4 3 1 1 1 3 6 3 2 3 3 5 4 5 3 2 3 4 4 3 5 4 3 3 3 1 1 1 2 4 4 4 4 5 6 7 6 8 11 12 12 13 14 16 17 18 18 16 16 19 20 19 19 19 17 17 17 17 16 15 14 13 13 13 15 15 14 14 14 15 15 16 16 18 20 21 22 26 27 28 29 30 32 33 32 32 32 33 33 33 33 32 34
4 4 6 5 3 3 3 3 2 5 5 1 2 1 3 5 4 2 1 2 1 1 2 4 4 4 4 3 2 1 2 2 3 3 3 2 3 5 6 7 6 7 9 10 11 12 13 14 16 17 17 16 16 17 19 18 18 18 17 16 16 17 17 15 14 14 14 15 15 15 15 15 15 16 16 14 14 16 18 20 22 25 27 29 30 30 31 31 31 31 31 33 34 33 33 33 34
3 5 7 5 4 4 4 4 4 5 3 2 1 1 3 7 8 6 6 6 2 2 2 1 2 2 2 2 2 2 2 3 2 2 2 1 2 4 5 6 6 7 8 9 10 11 11 12 14 16 16 16 15 16 17 17 17 16 16 16 16 16 16 16 14 14 14 14 15 15 15 14 13 14 15 15 15 16 17 19 19 20 22 25 27 28 28 28 29 30 31 33 34 34 34 33 35
6 7 7 6 5 4 6 6 4 4 1 1 1 0 3 6 6 9 12 7 0 2 2 1 1 2 2 2 2 3 3 2 1 1 1 1 2 3 4 5 5 6 7 8 9 10 10 10 13 14 15 14 15 16 17 16 15 15 15 15 15 15 15 15 14 13 12 12 12 12 12 12 12 12 12 13 14 15 16 17 17 18 19 20 22 25 27 28 29 30 31 32 33 33 32 32 35
4 2 2 4 4 3 5 4 3 2 2 1 2 2 4 4 1 2 6 3 1 2 2 1 2 3 3 3 3 3 2 1 0 1 1 1 2 2 3 4 4 5 6 7 7 8 8 9 11 13 14 15 15 15 15 15 15 14 15 14 14 14 14 14 14 13 11 11 11 10 10 10 10 10 10 10 11 12 14 15 16 18 19 19 19 20 23 25 28 30 31 32 33 32 31 32 33
2 1 0 3 2 0 1 0 0 1 1 2 4 3 5 4 4 5 6 4 3 3 3 3 3 3 3 3 3 2 1 1 1 1 2 2 2 2 3 3 4 4 5 6 6 7 7 9 10 11 13 16 15 13 12 13 13 14 14 14 13 14 15 14 14 13 11 10 10 10 9 9 9 9 9 9 11 13 13 13 13 16 17 17 18 19 20 21 23 26 30 31 32 31 31 32 33
2 1 3 2 1 3 3 1 2 0 4 3 4 4 5 4 6 8 7 5 4 4 4 3 3 3 3 3 3 3 2 1 1 0 1 3 2 3 3 3 4 4 5 5 6 7 7 9 10 10 12 13 12 11 11 12 12 12 13 13 13 14 15 13 11 11 10 9 9 9 10 10 10 10 11 11 11 12 13 12 12 12 13 14 16 17 18 19 21 23 26 29 30 30 30 31 32
2 3 4 3 1 1 1 2 1 2 5 3 4 6 6 3 3 2 2 3 2 5 3 1 2 3 3 4 3 3 3 2 1 1 1 2 3 3 3 3 4 4 5 5 6 8 8 8 9 9 10 11 11 11 11 10 11 10 10 11 12 13 14 12 10 9 9 8 8 8 9 10 11 12 12 12 12 12 12 13 12 11 12 13 13 15 16 18 19 21 24 26 28 28 29 31 31
1 2 2 3 2 3 3 3 3 4 5 4 4 6 5 5 5 2 2 2 2 4 3 1 2 3 4 4 5 5 4 3 1 1 2 2 3 4 4 4 4 4 4 4 5 8 8 8 8 8 8 9 9 10 10 9 10 9 8 9 10 10 10 9 8 8 8 9 9 9 9 11 11 12 13 13 15 14 13 14 14 13 14 14 13 14 15 15 18 20 22 25 27 27 28 30 30
1 1 1 0 1 2 3 3 3 4 5 5 4 4 4 5 6 7 8 5 2 3 3 2 2 3 3 3 4 5 4 3 2 2 2 3 3 4 5 5 4 4 4 4 5 6 6 7 8 8 8 8 9 10 10 10 11 9 8 9 9 9 8 8 8 8 8 10 11 10 10 10 11 12 13 14 15 16 15 15 15 14 14 14 14 14 14 14 15 17 19 22 24 24 25 28 29
5 4 5 4 1 0 1 3 2 2 4 5 5 5 4 1 3 6 5 1 1 2 3 2 2 2 2 2 3 4 3 2 2 2 2 2 4 5 6 4 4 4 3 3 4 5 5 6 7 7 7 8 8 9 10 10 11 11 9 9 9 9 9 10 9 8 9 10 10 10 10 11 12 13 14 14 14 13 13 13 13 13 13 13 14 14 13 13 13 14 16 18 21 22 23 25 26
4 5 7 8 5 4 3 4 2 1 3 4 4 5 3 1 1 3 3 3 2 2 2 3 2 0 1 2 3 3 2 1 1 2 2 3 4 5 5 5 4 4 4 3 4 4 4 4 5 6 6 6 6 8 9 9 9 9 9 8 8 8 8 8 7 7 8 9 10 10 11 11 11 12 12 12 11 11 12 12 12 12 13 13 14 14 14 13 13 14 15 18 21 21 22 23 24
Wind_Direction
312 294 277 256 259 273 263 253 254 196 244 265 118 155 125 91 110 134 128 134 136 115 81 112 131 114 82 357 14 27 28 25 18 7 61 110 142 133 131 136 136 138 136 135 137 133 131 139 137 129 121 112 105 98 99 100 101 99 99 105 101 93 88 92 100 102 101 102 103 101 98 94 90 90 89 87 81 78 79 77 76 77 78 78 77 77 76 76 76 76 77 77 78 79 82 85 83
310 295 271 252 246 259 259 232 263 188 219 223 135 125 110 130 166 149 140 133 111 115 132 139 143 132 13 341 301 356 54 44 45 69 85 132 141 131 138 138 138 141 138 138 138 135 136 143 141 133 125 118 111 105 103 103 105 103 101 100 96 94 90 94 101 103 104 105 104 102 99 95 93 92 89 88 86 85 84 80 76 77 79 77 78 78 78 78 78 78 79 79 79 79 81 84 82
293 287 256 242 221 241 264 221 256 220 220 199 124 110 124 158 160 127 116 101 101 120 137 141 147 149 251 226 221 343 80 67 77 91 107 144 144 142 147 141 142 142 138 140 140 137 139 147 145 137 131 124 118 112 106 105 107 106 105 101 97 99 93 93 101 105 107 106 104 103 101 97 95 93 91 90 88 87 83 83 81 79 80 79 79 79 80 80 78 78 80 79 79 80 81 82 82
292 274 246 259 223 216 241 219 255 250 226 176 118 127 153 164 130 100 92 96 113 134 139 153 155 143 271 308 22 2 97 85 90 101 129 154 141 141 148 143 144 143 141 141 141 138 143 151 147 141 134 129 124 116 110 106 108 109 108 104 101 102 97 94 100 105 108 105 105 105 103 99 97 94 92 92 90 86 85 91 89 83 82 82 82 81 82 82 81 80 80 79 79 80 81 83 85
297 270 248 270 249 210 253 237 265 251 257 14 113 137 163 149 122 105 102 107 126 153 152 174 163 118 246 331 340 337 94 103 105 110 133 139 128 138 147 146 147 148 145 143 142 138 146 153 147 144 138 134 130 121 116 109 111 113 110 107 103 101 100 102 101 103 109 107 106 107 106 102 97 96 93 93 91 85 88 97 92 87 86 85 85 82 81 82 83 82 82 81 81 82 83 85 88
279 250 233 255 275 324 256 231 228 221 20 3 65 129 154 134 124 119 116 112 124 157 166 189 169 128 176 91 22 28 61 113 117 123 132 130 133 142 146 147 150 152 148 145 142 139 149 154 149 148 143 139 136 130 122 115 115 116 114 112 107 105 106 108 103 103 109 107 107 108 108 104 99 99 96 94 92 86 87 92 91 89 87 88 87 83 81 82 82 82 83 84 83 85 87 89 91
269 234 192 214 204 245 238 226 223 198 54 15 31 119 146 133 128 130 132 132 139 161 208 200 183 210 142 121 117 71 57 75 113 128 129 133 140 144 146 150 152 153 151 146 141 143 153 155 154 154 148 144 140 137 127 122 119 119 118 114 113 113 108 105 105 105 107 106 109 111 109 106 105 104 99 96 94 90 86 83 84 86 87 87 86 84 83 83 84 82 84 86 85 87 89 92 94
263 255 166 220 196 204 243 236 234 120 67 55 53 73 120 137 145 149 155 161 163 168 191 189 213 233 118 140 158 104 93 78 110 120 125 138 144 147 150 153 153 154 152 147 143 147 157 158 159 159 152 149 144 142 134 128 122 122 123 118 119 115 108 107 108 105 104 105 111 117 115 110 107 104 101 97 94 93 90 82 78 80 84 83 81 82 82 82 84 83 83 85 85 88 91 94 97
242 244 179 233 212 201 237 227 189 79 102 112 117 74 77 149 160 162 164 159 155 165 172 172 212 232 125 149 105 120 133 107 124 123 130 142 145 150 153 157 156 156 154 149 147 149 160 162 163 162 157 154 147 146 142 134 125 126 126 123 125 119 115 110 107 106 106 107 114 122 119 111 105 104 103 100 96 97 96 91 87 84 85 82 81 82 84 85 85 84 84 85 87 89 94 96 98
227 222 227 230 220 203 219 213 176 111 123 113 116 144 153 163 170 172 170 154 153 158 145 152 209 235 149 142 106 122 134 129 139 134 139 146 148 153 155 161 157 158 157 153 150 150 162 165 165 166 163 160 154 151 146 140 132 131 129 130 131 128 125 113 109 114 113 114 120 122 115 110 105 103 104 102 99 99 98 96 96 94 92 90 89 88 88 89 87 87 86 88 90 92 98 99 100
220 196 247 235 218 209 212 196 171 129 126 137 130 143 162 168 178 182 169 147 158 154 135 163 198 198 204 120 97 109 126 139 146 143 147 150 152 155 157 161 159 161 159 157 154 151 161 166 168 170 170 167 165 160 151 148 140 137 135 136 133 134 138 129 122 123 124 123 125 122 115 112 107 108 108 107 104 102 100 99 99 95 94 91 90 90 91 93 91 92 92 92 94 96 101 104 108
222 183 204 224 218 213 207 178 159 133 133 164 156 146 165 171 180 185 172 155 165 163 158 185 190 179 200 130 107 124 137 148 146 148 150 153 156 158 160 159 161 165 162 162 159 156 160 166 170 173 175 174 173 170 160 158 150 144 140 139 135 136 143 145 139 128 130 131 129 126 123 122 117 118 117 117 115 110 107 103 100 93 94 94 94 96 96 99 100 99 98 98 100 102 107 113 117
240 198 203 222 234 219 154 146 138 138 165 170 149 145 161 174 188 192 179 167 172 176 163 169 129 232 204 102 116 135 147 153 148 151 152 157 160 160 164 162 166 168 166 168 165 163 163 165 171 175 178 179 180 180 174 168 159 154 150 146 147 142 139 150 157 142 137 138 137 139 137 138 137 134 131 132 125 119 118 114 110 104 106 105 103 102 98 101 104 101 99 102 107 109 118 122 122
262 245 231 226 212 215 166 151 151 177 177 137 124 141 164 181 197 198 183 181 172 155 108 121 130 229 191 123 148 153 153 154 150 152 155 159 160 163 166 166 171 170 170 174 173 171 171 170 171 177 181 180 183 186 185 178 170 163 160 158 160 159 141 146 162 161 155 148 148 153 149 147 149 148 146 148 135 128 128 126 127 121 116 111 105 101 99 101 101 101 101 107 113 117 126 126 125
279 276 262 225 175 197 190 182 171 205 160 127 135 149 166 177 194 203 191 188 138 89 90 111 297 268 187 146 150 144 149 150 151 154 157 160 161 166 167 169 175 175 176 180 179 177 180 178 175 179 178 180 183 186 189 187 181 171 168 168 168 173 155 145 155 167 168 161 157 159 158 149 150 156 156 160 146 132 134 136 138 128 117 112 108 105 106 106 103 105 107 113 122 126 128 129 130
280 274 244 217 199 201 187 180 177 212 145 126 144 155 168 163 181 209 53 353 92 103 156 165 173 311 11 54 75 121 142 146 150 154 156 159 164 167 169 174 177 179 183 185 187 183 185 186 184 182 176 181 185 182 184 188 187 179 178 177 178 184 179 161 147 161 169 166 162 158 159 148 154 161 161 169 166 147 146 148 146 137 125 118 116 115 115 115 112 114 119 127 133 130 129 133 137
286 262 230 212 206 203 176 176 177 168 121 125 148 164 178 160 169 210 46 306 189 143 193 148 136 343 44 87 92 120 139 145 150 155 158 162 168 171 175 180 181 184 187 190 192 188 190 191 191 186 179 184 187 183 182 186 188 184 188 189 188 191 192 185 160 163 166 168 163 142 138 140 150 153 157 171 178 174 163 162 160 158 150 138 131 124 123 123 120 123 132 134 128 126 132 141 148
232 222 221 215 205 190 174 178 164 115 134 143 160 176 191 167 164 167 149 218 209 169 190 164 143 126 92 108 118 129 142 150 156 161 164 169 174 177 180 183 185 187 188 192 194 192 193 193 194 191 185 188 189 184 181 186 188 186 193 195 193 194 197 193 180 172 166 171 158 130 131 148 149 147 157 163 173 183 177 177 175 177 175 161 157 144 138 138 134 137 135 124 121 125 132 148 163
220 228 220 222 195 124 133 155 94 19 146 149 163 183 200 174 161 166 191 197 191 202 197 192 191 158 125 124 138 143 150 159 165 170 172 175 179 182 183 184 188 189 190 192 193 195 195 194 196 194 189 190 192 188 184 188 188 184 186 189 193 198 193 183 181 173 164 175 161 142 150 160 151 161 174 168 172 181 185 190 187 194 196 187 187 173 160 155 149 142 127 118 123 121 120 148 174
226 234 225 209 133 96 74 113 90 22 107 151 164 178 193 168 151 166 204 196 190 211 199 193 201 182 158 145 151 155 161 168 173 179 180 182 185 186 185 184 189 192 192 192 193 195 196 196 196 196 193 190 192 192 190 190 188 184 181 182 188 194 187 180 188 183 176 187 175 164 181 171 160 188 195 180 173 173 188 198 198 206 214 223 214 191 202 180 158 142 128 118 119 122 135 169 178
211 212 250 140 126 124 111 103 97 46 11 161 155 165 183 160 153 176 203 201 198 216 207 195 203 194 172 151 158 165 168 174 180 187 188 188 190 192 190 186 189 191 191 192 194 196 197 198 196 196 196 193 193 193 194 193 192 190 185 184 183 186 188 187 193 192 188 192 185 179 192 182 166 191 197 179 167 162 174 185 193 196 209 231 177 132 250 188 155 149 136 125 135 182 189 190 193
217 201 342 38 127 131 117 100 86 60 348 157 151 170 171 143 171 194 205 214 195 196 199 188 200 197 169 154 157 165 171 177 183 192 194 194 194 195 196 191 189 189 189 191 194 196 197 198 197 197 197 197 196 195 196 195 195 195 192 192 190 189 191 191 194 196 197 193 189 190 196 189 171 175 180 172 173 174 172 173 181 181 188 206 166 162 228 178 169 186 170 167 200 213 203 204 208
243 197 75 25 21 81 114 98 72 65 201 171 164 165 149 158 191 197 215 226 76 61 53 70 60 99 148 150 156 166 175 182 186 194 196 197 197 198 198 195 192 189 190 193 195 195 196 198 197 197 196 197 199 197 198 197 197 199 198 198 195 193 195 195 197 198 199 195 192 198 200 194 185 180 181 180 182 182 181 181 185 188 191 200 193 200 215 196 191 198 200 208 213 212 210 212 214
255 214 137 71 27 74 94 84 88 189 190 167 145 144 168 193 193 172 222 229 110 78 63 67 75 103 138 149 162 173 180 187 192 196 198 200 200 200 200 200 198 194 194 195 194 194 195 197 197 197 197 197 199 199 200 201 201 202 201 202 199 197 199 198 200 200 202 200 195 201 202 199 201 195 191 191 190 188 190 190 188 195 195 200 203 207 215 205 195 201 206 213 217 220 225 225 224
241 225 126 112 54 86 82 91 129 157 188 51 148 181 186 195 160 159 225 229 175 123 102 96 112 147 163 167 173 179 184 191 196 198 200 204 203 201 203 204 204 199 198 197 195 195 196 197 198 198 198 198 199 200 202 204 205 205 204 206 205 205 207 203 204 203 203 205 198 200 201 200 206 207 201 197 196 194 197 200 197 200 200 203 206 209 218 207 197 206 208 214 219 220 231 232 229
222 171 116 125 101 94 98 114 137 160 181 177 193 187 155 85 13 241 228 218 163 145 151 137 133 160 184 184 181 184 188 192 196 197 200 203 203 202 203 204 208 206 202 199 197 197 196 197 200 200 199 199 199 200 203 206 207 207 207 207 208 212 213 208 208 207 204 207 203 202 203 201 206 211 212 205 200 200 211 219 212 209 209 210 214 215 218 209 202 212 210 212 217 218 227 229 228
131 129 110 116 107 99 139 127 137 165 162 194 208 175 136 115 212 238 207 160 136 165 194 184 174 183 188 190 190 190 192 195 195 195 196 198 200 202 203 204 208 209 205 203 200 199 197 197 200 201 201 200 200 202 204 207 207 208 208 209 210 213 214 209 210 211 208 207 206 207 204 204 208 212 216 214 207 206 221 230 224 221 222 224 226 219 219 215 206 214 214 211 215 221 225 228 230
132 134 112 111 117 119 148 134 147 189 155 193 238 172 148 144 214 232 144 124 165 196 203 194 203 209 199 196 194 195 200 199 194 195 197 197 199 200 203 204 205 207 207 206 202 199 198 198 200 202 202 201 202 204 205 207 209 210 209 211 214 212 212 212 211 210 210 210 208 209 208 207 209 213 217 218 213 208 220 229 225 226 229 235 238 227 227 224 211 216 221 218 217 220 223 229 230
154 161 143 139 161 159 169 146 157 223 164 176 249 224 201 196 218 212 135 136 170 196 210 200 210 215 210 203 191 197 202 199 194 198 202 200 200 201 204 204 201 204 207 207 202 200 199 198 198 200 203 203 204 205 206 209 211 213 212 213 218 214 213 213 211 211 211 212 210 205 207 208 209 214 217 218 217 211 217 225 227 232 233 237 243 239 239 234 224 228 235 235 231 228 228 230 230
165 195 199 160 192 190 171 149 172 214 134 168 234 247 231 207 207 178 130 150 157 185 209 202 211 211 210 206 195 201 199 199 200 203 206 203 203 203 206 204 200 202 203 203 201 200 199 197 197 199 202 204 205 206 207 210 212 215 215 216 219 219 217 212 210 214 214 218 221 211 207 208 209 215 217 219 221 215 218 230 234 238 238 240 247 250 251 244 233 232 239 241 238 234 233 232 234
173 184 218 190 207 179 150 153 182 192 136 182 221 250 261 190 168 144 131 166 170 192 204 199 209 206 207 204 202 209 201 203 207 209 209 205 205 205 205 203 199 201 200 199 199 199 198 196 195 197 201 203 207 208 206 211 214 215 217 217 218 220 221 216 213 216 216 219 222 219 219 217 212 215 219 220 222 219 222 235 241 241 245 249 254 256 253 242 231 228 230 233 231 233 235 234 235
184 176 207 205 215 157 137 159 186 198 155 190 212 240 255 161 129 128 143 179 191 207 207 202 206 203 208 206 207 215 210 210 212 216 215 209 208 205 205 203 199 200 199 198 198 197 197 197 196 196 198 201 206 209 208 212 214 216 218 217 218 221 223 220 215 215 222 227 226 229 237 236 227 219 220 220 222 227 230 237 243 243 250 255 254 254 251 239 230 228 228 229 227 229 233 231 232
193 208 209 192 208 177 145 159 187 218 156 194 220 253 258 159 120 136 170 190 199 211 216 210 211 212 213 212 213 217 215 213 212 217 216 212 211 208 205 202 199 199 199 198 195 195 197 198 198 196 197 199 202 207 209 212 213 216 218 219 220 220 224 225 221 223 229 231 232 240 246 245 242 237 238 234 231 237 239 241 241 241 250 255 252 251 249 241 235 234 234 236 234 228 228 230 230
187 215 222 184 208 200 170 156 163 198 201 211 219 239 259 236 132 149 173 191 197 207 220 219 219 222 221 220 221 220 220 218 215 215 212 210 211 209 207 204 202 200 200 201 197 195 197 197 198 198 198 197 199 203 207 211 213 216 219 221 222 221 225 228 229 229 226 227 234 243 244 245 247 247 249 246 240 241 242 244 242 241 248 252 249 248 248 243 237 238 238 240 241 234 227 228 229
185 196 211 185 208 224 210 157 149 186 210 225 217 225 248 251 227 179 167 178 199 211 216 221 224 224 223 222 225 228 228 227 224 219 213 209 209 208 207 205 203 202 202 202 200 198 198 198 199 199 199 197 197 200 203 207 211 215 218 220 222 222 223 226 228 227 226 230 235 237 237 242 247 245 245 244 241 240 240 242 241 241 247 247 245 245 247 244 238 238 237 235 242 241 233 229 232
196 193 208 196 191 219 187 104 115 190 208 222 226 231 245 249 249 236 192 178 200 223 220 224 227 225 227 225 228 230 232 235 231 226 216 206 205 206 205 203 205 207 206 203 202 201 200 199 199 200 200 198 197 198 200 203 208 213 215 217 220 220 221 222 224 225 227 231 234 235 234 236 242 244 244 243 241 240 240 242 241 240 244 243 242 244 247 247 242 240 239 235 236 241 239 235 232
212 197 208 206 198 200 133 100 102 198 226 225 229 241 251 255 253 251 236 206 209 226 230 232 231 230 230 227 230 231 233 236 224 217 208 200 203 205 206 205 205 208 209 205 203 203 203 201 200 200 199 198 198 197 197 200 204 208 211 214 216 217 219 220 222 226 229 229 232 235 234 233 237 240 242 242 241 241 240 241 239 237 241 243 243 245 247 249 248 246 244 239 234 236 241 241 236
226 209 206 212 215 180 102 100 122 141 240 236 227 245 254 257 258 255 249 239 233 232 232 235 235 235 234 230 231 231 233 226 198 196 198 202 210 211 211 211 205 203 207 207 206 207 206 203 202 202 199 199 200 200 199 200 203 205 207 211 214 216 218 218 219 224 228 229 227 228 232 236 234 230 237 241 240 240 240 238 235 236 242 246 246 247 246 246 246 245 242 240 237 237 242 246 241
217 220 214 218 202 147 111 115 130 142 231 243 226 259 262 259 259 254 246 243 243 240 237 238 237 236 235 231 231 228 226 216 201 202 200 202 211 211 211 213 212 210 210 209 208 208 205 204 205 202 200 202 201 202 202 202 204 204 205 208 210 215 220 220 221 220 223 229 229 230 235 235 228 229 242 245 240 239 241 240 238 241 249 252 250 248 244 242 243 244 244 242 240 241 245 246 241
214 218 214 209 157 168 184 150 144 159 231 295 313 286 274 263 259 252 242 239 241 240 239 239 238 237 237 236 238 229 220 218 213 207 201 200 203 201 202 210 216 216 212 206 205 205 203 203 205 202 201 203 202 205 206 203 202 203 205 207 208 216 221 220 220 221 222 228 232 235 237 233 229 234 243 245 242 241 241 242 242 246 253 256 253 247 242 242 244 246 247 244 240 239 245 243 237
214 231 231 212 156 172 46 122 150 179 204 268 297 283 273 251 243 245 233 225 235 235 233 239 237 233 237 246 256 241 225 226 221 209 204 204 201 196 200 211 217 216 213 209 205 203 202 203 204 203 202 202 202 207 207 202 198 199 202 206 210 218 222 215 212 216 219 223 227 232 235 234 233 236 239 241 241 241 242 244 247 249 253 257 255 248 244 246 247 248 248 245 240 236 239 240 238
202 218 236 266 174 150 101 129 159 218 214 194 256 265 276 231 222 234 215 193 228 223 223 239 237 223 217 225 237 238 234 234 230 227 221 216 214 207 202 207 213 216 217 218 214 206 200 201 203 201 200 201 201 203 203 199 197 196 196 199 203 212 219 216 213 214 215 220 225 227 231 231 227 229 231 228 232 239 246 250 252 252 250 250 252 250 247 248 249 249 248 245 243 240 239 241 244
208 199 206 139 181 147 134 158 189 249 229 136 214 250 274 248 216 219 190 203 236 222 220 237 239 223 205 209 223 224 225 225 223 229 229 226 225 221 215 209 210 217 219 220 218 209 198 196 199 197 196 199 199 197 197 196 195 196 197 199 203 208 216 218 219 220 221 223 226 227 227 226 224 230 233 231 234 244 252 255 256 254 248 242 247 251 251 253 255 254 251 248 250 248 241 240 245
214 41 173 158 178 177 161 180 219 269 42 145 208 237 276 273 250 164 154 235 252 239 234 236 232 220 202 197 205 204 213 218 220 226 225 226 223 221 224 218 214 218 215 214 215 210 204 198 194 194 195 195 196 195 193 193 195 197 199 203 207 212 217 218 217 220 223 225 228 230 232 234 237 244 246 243 245 247 249 252 254 251 247 243 245 250 254 260 265 263 259 255 254 252 246 243 246
183 32 113 132 149 175 178 204 224 301 332 235 198 176 256 267 236 154 169 244 254 246 243 236 216 194 182 177 173 176 197 217 241 248 239 234 226 221 221 215 210 207 203 207 210 211 209 203 196 195 194 192 195 196 192 192 196 197 198 203 209 214 219 220 216 215 218 221 224 228 235 239 241 244 243 241 242 243 243 249 253 250 248 248 249 254 259 264 266 264 261 257 255 254 252 248 246
146 155 109 96 100 108 156 218 212 195 255 248 184 175 245 273 242 191 182 225 241 242 241 221 154 137 142 142 139 146 180 217 251 260 256 250 234 219 210 206 202 202 207 207 205 206 205 201 197 196 193 191 193 194 191 191 194 195 199 204 207 211 215 218 217 215 215 218 222 223 228 234 235 235 238 238 239 243 249 254 254 251 249 251 255 259 262 262 261 260 258 256 255 254 251 247 245
142 154 117 103 115 110 126 210 214 235 243 245 137 166 252 282 259 209 184 210 235 243 233 138 112 121 131 126 122 103 18 293 267 264 259 249 227 208 201 199 193 202 211 203 197 199 195 192 193 191 191 188 187 190 190 191 193 194 199 203 205 208 211 214 214 215 215 217 222 225 226 229 231 234 241 244 246 252 256 254 252 254 256 258 262 262 261 260 259 261 259 255 253 252 250 248 247
150 159 139 124 122 142 189 173 185 237 237 183 51 356 249 245 245 188 91 12 26 219 195 124 115 120 121 119 113 79 8 322 288 273 263 229 196 187 189 187 174 181 193 184 185 188 182 184 187 185 186 185 182 184 187 188 190 193 198 202 205 208 211 213 214 216 217 218 223 226 228 232 236 238 241 244 250 255 257 256 257 261 262 262 261 260 260 261 260 261 258 252 252 254 253 250 248
201 172 159 167 165 169 207 193 195 230 225 103 78 340 246 244 253 254 268 280 259 205 199 145 106 112 108 97 67 37 345 325 303 278 268 224 187 173 175 172 164 165 169 171 176 176 175 179 180 179 180 179 177 178 180 183 186 191 196 200 205 208 212 214 216 218 219 221 224 226 228 232 236 239 241 243 244 248 254 257 258 261 263 263 262 262 264 264 263 263 260 255 254 255 254 251 250
196 181 177 192 179 177 207 201 204 227 175 80 187 226 258 262 264 255 258 266 4 113 213 252 269 265 288 322 333 319 308 317 297 262 250 206 178 164 165 160 157 157 156 160 164 166 167 170 172 175 172 169 172 176 180 181 183 190 194 198 202 206 209 212 214 217 217 218 221 223 227 231 235 238 242 244 243 244 249 252 255 258 261 263 266 267 268 268 268 267 264 260 257 255 253 251 251
191 192 193 210 206 207 209 203 211 199 114 116 191 203 235 248 352 271 262 262 110 154 206 225 253 252 268 286 282 275 280 308 223 232 193 153 148 145 146 143 140 144 151 154 157 160 158 160 166 167 166 172 178 180 182 181 183 189 191 194 197 200 205 206 209 213 213 214 217 221 226 228 232 235 238 243 246 246 247 249 252 255 257 259 262 267 270 271 269 267 265 261 258 256 253 252 253
188 4 324 231 250 62 133 126 94 110 46 176 186 235 248 260 307 284 254 214 177 185 178 187 228 225 218 253 247 220 203 110 154 198 140 120 119 128 122 129 134 136 146 151 156 159 154 157 161 161 174 184 181 177 177 177 182 186 188 192 193 196 200 199 204 211 211 213 216 218 223 225 229 233 235 241 248 252 251 248 250 254 256 257 259 262 266 270 270 267 266 263 261 260 259 258 258
160 161 187 206 18 70 115 150 90 64 278 221 174 238 263 273 282 264 241 218 181 161 164 191 205 189 187 226 218 172 120 115 149 129 113 109 110 113 101 112 125 136 150 153 159 160 154 159 157 156 175 183 174 170 174 175 179 183 186 192 191 195 201 200 202 209 211 215 217 218 223 227 229 232 234 234 240 249 251 251 254 256 256 255 257 260 261 265 270 270 269 267 265 265 264 263 261
132 177 174 143 54 29 155 234 179 197 252 244 178 229 258 260 259 230 199 236 193 148 148 220 203 189 197 197 181 147 117 118 128 80 106 100 102 103 96 106 114 130 142 141 160 166 159 158 153 151 169 177 171 171 173 173 177 180 184 191 195 200 206 209 210 211 214 218 220 222 225 227 230 234 237 239 244 250 249 249 251 252 254 254 254 257 257 260 265 269 271 270 269 268 266 263 262
28 236 174 130 203 210 183 213 232 216 236 253 212 218 242 238 233 219 191 232 205 145 128 168 185 185 196 180 154 134 123 117 87 82 99 89 97 100 97 101 99 113 127 129 161 172 164 158 152 147 160 170 171 172 171 172 176 178 183 190 197 201 205 209 210 209 215 220 222 226 229 232 238 242 247 251 257 261 259 256 254 251 253 254 254 255 256 257 260 264 270 272 272 270 266 264 262
37 277 192 111 273 233 189 200 235 236 237 253 237 214 230 222 216 229 237 247 227 145 115 117 145 153 178 160 132 128 121 107 80 75 82 71 80 88 88 93 97 110 131 140 153 158 158 162 158 151 154 162 170 172 171 175 182 184 185 186 190 193 197 202 203 203 212 222 230 237 240 245 253 257 259 260 261 263 261 260 260 259 259 259 259 258 257 259 262 266 270 272 272 270 267 265 264
174 181 178 181 187 296 250 221 222 255 243 247 249 246 248 210 182 214 227 256 80 95 89 121 133 122 140 108 99 111 106 99 82 69 79 72 74 83 87 99 115 120 128 141 146 144 151 161 161 160 160 164 173 179 180 185 193 197 198 199 201 205 211 215 219 223 230 238 246 252 254 257 261 263 263 262 262 261 261 262 264 264 265 266 266 266 265 265 267 269 271 271 271 270 269 268 267
182 189 186 190 177 153 198 212 182 212 243 244 261 264 257 113 133 205 153 103 111 104 95 131 140 57 130 92 86 98 98 111 88 65 86 84 79 85 87 96 105 102 107 128 141 141 143 150 161 164 158 158 170 181 187 191 196 199 201 205 211 218 224 229 236 243 249 252 256 259 261 262 264 264 263 263 266 268 269 272 273 272 272 273 274 275 274 274 273 272 271 270 269 268 268 268 268